sat.trackr.live / text

‹ back to catalog

KUIPER-00177

NORAD 67766 · 2026-030C

PAYLOAD ACTIVE UNKNOWN

§ Identity

Operator
Country
US
Launch date
2026-02-12
Launch site
FRGUI
Launch vehicle
Mass (kg)
RCS (m²)

External: N2YO · Heavens-Above · Gunter

§ Orbital elements

Epoch: 2026-05-24T17:22:51.438144Z

Period
97.30 min
Inclination
51.9003°
Eccentricity
0.0000299
Mean motion
14.79933066 rev/d
Perigee alt
629.3 km
Apogee alt
629.7 km
Semi-major
7,007.7 km
B*
-5.4063e-4
RAAN
236.8963°
Arg perigee
74.0898°
Mean anomaly
286.0098°
Rev number
1,643

§ Raw data

KUIPER-001771 67766U 26030C   26144.72420646 -.00004340  00000+0 -54063-3 0  99942 67766  51.9003 236.8963 0000299  74.0898 286.0098 14.79933066 16430

JSON: /api/v1/satellites/67766 · /tle

For live sub-satellite position, see the globe view (requires WebGL).

§ Visibility from observer

Set your observer location to see the next 7 days of passes ≥ 10°. The values pass through the URL so the page stays shareable.

No JS? Fill the form by hand. The geolocation button needs JavaScript.